639  
AXUS43 KLBF 180510  
MISLBF  
 
WESTERN AND NORTH CENTRAL NEBRASKA HOURLY WEATHER ROUNDUP  
NATIONAL WEATHER SERVICE NORTH PLATTE NE  
1200 AM CDT MON JUN 18 2018  
 
NOTE: "FAIR" INDICATES FEW OR NO CLOUDS BELOW 12,000 FEET WITH NO  
SIGNIFICANT WEATHER AND/OR OBSTRUCTIONS TO VISIBILITY.  
 
NOTE: STATIONS NOT REPORTING VARIABLES SUCH AS SKY/WEATHER OR  
PRESSURE ARE PROVIDED BY RAWS AND APRS NETWORKS AND ARE NOT UNDER  
NATIONAL WEATHER SERVICE QUALITY CONTROL.  
   
..OBSERVATIONS IN AND NEAR THE EASTERN PANHANDLE OF NEBRASKA
 
 
 
CITY SKY/WX TMP DP RH WIND PRES REMARKS  
PINE RIDGE LGT RAIN 53 53 100 NE12 30.09S FOG  
GORDON DRIZZLE 55 54 96 NE12 30.07S  
CHADRON CLOUDY 53 53 100 NE14 30.10R FOG  
ALLIANCE CLOUDY 54 54 100 NE13 30.05F  
SIDNEY CLOUDY 55 55 100 N16G24 30.04F  
CRESCENT LAKE N/A 55 54 97 N15G23 N/A  

 
   
..OBSERVATIONS IN NORTHERN NEBRASKA AND FAR SOUTHERN SOUTH DAKOTA
 
 
 
CITY SKY/WX TMP DP RH WIND PRES REMARKS  
WINNER LGT RAIN 61 58 90 N8 30.00F  
VALENTINE LGT RAIN 60 58 92 NE10 30.04R FOG  
AINSWORTH RAIN 59 59 100 NE8 30.01F  
O'NEILL LGT RAIN 65 64 97 N12 29.97R  
THEDFORD LGT RAIN 60 59 96 NE15 30.00R  
BROKEN BOW MOCLDY 65 63 93 NE12G20 29.95S  
ORD LGT RAIN 68 65 90 NW16G31 29.96R  
ALBION HVY RAIN 72 70 93 N15 29.92R  
VALENTINE NWR N/A 58 57 98 NE13G20 N/A  
BUTTE N/A 61 60 96 NE10G17 N/A  
CHAMBERS N/A 64 63 97 CALM N/A  
EWING N/A 67 65 95 NE3 N/A  

 
   
..OBSERVATIONS IN SOUTHWEST NEBRASKA AND FAR NORTHEAST COLORADO
 
 
 
CITY SKY/WX TMP DP RH WIND PRES REMARKS  
WRAY CLOUDY 61 61 100 NE13G20 29.99R  
HOLYOKE CLOUDY 61 59 94 N18 30.00R  
IMPERIAL CLOUDY 63 61 93 N13G25 29.97S  
OGALLALA LGT RAIN 61 59 95 NE9 30.00F  
NORTH PLATTE PTCLDY 63 62 97 NE6 29.98R  
MCCOOK MOCLDY 77 63 61 NW6 29.90R  
LEXINGTON MOCLDY 71 65 81 N14 29.92R  
STAPLETON N/A 60 59 97 E3G12 N/A  
GOTHENBURG N/A 69 61 75 N9 N/A  
CALLAWAY N/A 64 62 92 NE12 N/A  

 
   
..OBSERVATIONS IN CENTRAL LINCOLN COUNTY AREA
 
 
 
CITY SKY/WX TMP DP RH WIND PRES REMARKS  
N.P. AIRPORT PTCLDY 63 62 97 NE6 29.98R  
N.P. DOWNTOWN N/A 61 61 100 NE3 N/A  
N.P. SOUTHEAST N/A 61 60 96 N3 N/A  

 
   
..OBSERVATIONS ACROSS THE ROCKIES AND WESTERN HIGH PLAINS
 
 
 
CITY SKY/WX TMP DP RH WIND PRES REMARKS  
RAPID CITY LGT RAIN 55 54 96 N7 30.12F FOG  
SCOTTSBLUFF CLOUDY 56 55 97 NE10 30.07R  
CHEYENNE CLOUDY 51 51 100 E10 30.13S FOG  
DENVER RAIN 57 55 93 NE8 30.09F FOG  
BERTHOUD PASS DRIZZLE 37 23 56 S10 30.45S WCI 30  
COPPER MTN CLOUDY 46 37 71 S16 30.42S  
MONARCH PASS CLOUDY 41 37 87 MISG 30.53R  
ASPEN MOCLDY 55 48 77 SW6 30.13R  
STEAMBOAT FAIR 57 50 78 CALM 30.07S  
LARAMIE CLOUDY 52 49 89 E9 30.13S  
CASPER CLOUDY 54 54 100 E20G25 30.08F  

 
   
..OBSERVATIONS ACROSS THE NORTHERN PLAINS
 
 
 
CITY SKY/WX TMP DP RH WIND PRES REMARKS  
BISMARCK CLEAR 60 53 77 N3 30.09R  
FARGO FAIR 64 57 78 N6 29.99R  
PIERRE MOCLDY 59 59 100 N8 30.02S  
SIOUX FALLS LGT RAIN 67 65 93 N10 29.91F  

 
   
..OBSERVATIONS ACROSS THE CENTRAL AND SOUTHERN PLAINS
 
 
 
CITY SKY/WX TMP DP RH WIND PRES REMARKS  
OMAHA CLOUDY 83 68 60 S15 29.87S  
GRAND ISLAND PTCLDY 79 68 69 S7 29.89R  
KANSAS CITY CLEAR 81 69 67 S13 29.95R  
WICHITA CLEAR 80 69 69 SE13 29.93F  
DODGE CITY CLOUDY 75 67 76 S14 29.94R  
OKLAHOMA CITY PTCLDY 80 68 66 SE16 29.95F  
DALLAS PTCLDY 82 73 74 SE17 29.96R  
AMARILLO CLEAR 70 64 81 SE9 30.01S  

 
 
 
CLICK HERE TO GO TO PREVIOUS BULLETINS.

The Nexlab NE Page Main Text Page